User: anonymous   Login
Location: Unspecified
(0.0000°N, 0.0000°E)
Time: 02:11:19
(UTC+00:00)
Language:

Nadezhda 3 - Orbit

View from above orbital plane
View from above orbital plane
View from above satellite
View from above satellite

Ground track
Ground track

The orbit data is extracted from the following two-line orbital elements,

1 21152U 91019A   18110.23600147  .00000031  00000-0  16165-4 0  9992
2 21152  82.9291 353.6526 0042990  97.3467  22.6079 13.74230021359123
Epoch (UTC): 20 April 2018 05:39:50
Eccentricity: 0.0042990
inclination: 82.9291°
perigee height: 953 km
apogee height: 1016 km
right ascension of ascending node: 353.6526°
argument of perigee: 97.3467°
revolutions per day: 13.74230021
mean anomaly at epoch: 22.6079°
orbit number at epoch: 35912

The dashed part of the orbit path shows where the satellite is in the earth's shadow,  

DLR